Location: Beddau
(51.5575°N, 3.3561°W)
Time: 15:36:55
(UTC+00:00)

CZ-2C R/B - Pass Details

Date: 03 March 2021
Orbit: 784 x 871 km, 98.2° (Epoch: 12 April)

Event Time Altitude Azimuth Distance (km) Brightness Sun altitude
Rises 19:39:57 0° 14° (NNE) 3,443 5.9 -16.6°
Reaches altitude 10° 19:42:21 10° 14° (NNE) 2,492 5.1 -17.0°
Maximum altitude 19:47:54 85° 286° (WNW) 849 2.7 -17.9°
Drops below altitude 10° 19:53:17 10° 199° (SSW) 2,417 5.1 -18.7°
Sets 19:55:35 0° 199° (SSW) 3,332 5.9 -19.0°
